Regional Weather Roundup
Issued by NWS Wakefield, VA

Home | Current Version | Previous Version | Graphics & Text | Print | Product List | Glossary On
Versions: 1 2 3 4 5 6 7 8 9 10 11 12 13 14 15 16 17 18 19 20 21 22 23 24 25 26 27
000
ASUS41 KAKQ 211315
RWRAKQ

REGIONAL WEATHER ROUNDUP
NATIONAL WEATHER SERVICE WAKEFIELD VA
800 AM EST WED FEB 21 2018

Note: "fair" indicates few or no clouds below 12,000 feet with no
significant weather and/or obstructions to visibility. * = Denotes
station may not report precipitation (e.g., rain,snow,etc.),
thunder or fog.

VAZ042-051-052>054-056-211400-
NORTHERN VIRGINIA

CITY           SKY/WX    TMP DP  RH WIND       PRES   REMARKS
WASH NATIONAL  FAIR      61  60  97 S16       30.34S
DULLES         PTSUNNY   61  60  97 S12       30.34R
FORT BELVOIR   FAIR      62  59  90 S5        30.36R
QUANTICO       PTSUNNY   64  62  93 SW10G20   30.38R
FREDERICKSBRG* CLOUDY    65  65 100 SW13G22   30.38R
STAFFORD*      CLOUDY    64  64 100 SW12      30.42R
WARRENTON      FAIR      63  57  79 S9G17     30.36R
CULPEPER*      FAIR      62  58  87 SW10G16   30.37R
MANASSAS*      FAIR      63  59  87 S10       30.35R
LEESBURG*      FAIR      61  59  94 S9G16     30.33S
WINCHESTER     FAIR      59  52  77 SW9       30.33R
FRONT ROYAL*   FAIR      64  55  72 SW9       30.31R
LURAY*         FAIR      63  55  77 SW14G20   30.34R
$$

VAZ048-049-060>072-079>083-211400-
CENTRAL AND SOUTH CENTRAL VIRGINIA

CITY           SKY/WX    TMP DP  RH WIND       PRES   REMARKS
RICHMOND       CLOUDY    65  62  90 SW9       30.43R
CHESTERFIELD*  FAIR      65  62  90 S6        30.43S
PETERSBURG*    NOT AVBL
HANOVER        CLOUDY    66  62  87 S10       30.42S
TAPPAHANNOCK*  CLOUDY    66  63  90 S7G18     30.41S
QUINTON*       CLOUDY    64  64 100 SW6       30.43R
CHARLOTTSVILLE FAIR      61  58  90 S13       30.38R
GORDONSVILLE*  CLOUDY    59  59 100 SW6       30.39R
ORANGE*        CLOUDY    59  57  94 SW8       30.39R
LOUISA*        CLOUDY    63  61  93 SW9       30.44R
BUMPASS*       CLOUDY    63  62  96 SW7       30.39R
FARMVILLE*     CLOUDY   N/A N/A N/A S7        30.41R
CREWE*         PTSUNNY   64  64 100 S5        30.43R
FORT PICKETT*  FAIR      64  64 100 SW12G20   30.43R
CHASE CITY*    CLOUDY    63  63 100 CALM      30.44R
CLARKSVILLE*   FAIR      64  64 100 SW9       30.43R
SOUTH HILL*    CLOUDY    64  64 100 SW7       30.50R
LAWRENCEVILLE* PTSUNNY   64  63  97 CALM      30.44S
EMPORIA*       CLOUDY    63  63 100 SE5       30.47S
$$

VAZ088>098-211400-
SOUTHEAST VIRGINIA

CITY           SKY/WX    TMP DP  RH WIND       PRES   REMARKS
NORFOLK        CLOUDY    68  65  90 SW15      30.45R
VIRGINIA BEACH CLOUDY    66  62  87 SW12      30.46R
NORFOLK NAVAL  CLOUDY    67  63  87 SW8       30.47R
WEST POINT*    CLOUDY    65  61  88 SW7       30.45R
SALUDA*        CLOUDY    65  65 100 SW8G18    30.43R
NEWPORT NEWS   CLOUDY    65  62  90 SW10      30.45R
LANGLEY AFB    CLOUDY    65  65 100 SW12      30.45R
FORT EUSTIS    CLOUDY    64  63  95 SW6       30.43R
WILLIAMSBURG*  PTSUNNY   66  66 100 SW3       30.45S
HR EXEC AP*    CLOUDY    66  64  93 SW8       30.47R
FRANKLIN*      CLOUDY    64  64  98 S7        30.47S FOG
US460-WAKEFLD  CLOUDY    65  64  97 SW6       30.45R
$$

VAZ020-022-025-037-045-211400-
WEST CENTRAL AND SOUTHWEST VIRGINIA

CITY           SKY/WX    TMP DP  RH WIND       PRES   REMARKS
STAUNTON*      FAIR      50  49  97 CALM      30.39R
WAYNESBORO*    FAIR      58  56  92 CALM      30.38R
HOT SPRINGS VA CLOUDY    57  55  91 SW14G24   30.44R
LYNCHBURG      FOG       58  58 100 S8        30.42R VSB 1
DANVILLE       CLOUDY    63  63 100 S6        30.44R
SOUTH BOSTON*  CLOUDY    64  63  95 S5        30.44R
MARTINSVILLE   FOG       56  55  98 CALM      30.46R VSB 1
ROANOKE        PTSUNNY   58  55  90 CALM      30.42S
BLACKSBURG     CLOUDY    62  59  91 S6        30.46R
DUBLIN*        CLOUDY    62  62  99 S8        30.42R
MARION*        CLOUDY    59  55  85 CALM      30.42S
HILLSVILLE*    CLOUDY    59  58  96 S12       30.43R
RICHLANDS*     CLOUDY    64  55  72 S5        30.40R
WISE*          MOCLDY    61  61 100 S12       30.39R
ABINGDON*      CLOUDY    58  55  89 CALM      30.39R
$$

MDZ021>025-VAZ099-100-211400-
SOUTHERN MARYLAND AND THE DELMARVA PENINSULA

CITY           SKY/WX    TMP DP  RH WIND       PRES   REMARKS
PATUXENT RIVER PTSUNNY   65  63  93 SW10      30.39R
BAY BRIDGE APT FAIR      61  59  94 S9        30.35R
LEONARDTOWN    CLOUDY    63  61  94 SW9       30.41R
DOVER          PTSUNNY   64  62  91 SW16G24   30.34R
GEORGETOWN     CLOUDY    66  62  87 SW14G22   30.38R
EASTON         CLOUDY    64  61  88 SW14      30.40R
CAMBRIDGE      CLOUDY    63  61  94 S8        30.38S
SALISBURY      CLOUDY    65  63  93 SW15G22   30.40R
OCEAN CITY     CLOUDY    55  55 100 SW8       30.42R
WALLOPS ISLAND PTSUNNY   60  59  96 S5        30.43S FOG
ACCOMACK*      CLOUDY    66  64  93 SW10G18   30.43S
$$

NCZ012>017-030>032-211400-
NORTH CENTRAL AND EASTERN NORTH CAROLINA

CITY           SKY/WX    TMP DP  RH WIND       PRES   REMARKS
ROANOKE RAPIDS CLOUDY    64  64 100 CALM      30.47R FOG
RALEIGH        CLOUDY    65  64  97 SW9       30.47S
ELIZABETH CITY FOG       63  63 100 SW8       30.49R VSB 1/4
AHOSKIE*       CLOUDY    63  63 100 S3        30.48S FOG
EDENTON*       FOG       64  64 100 CALM      30.50R VSB<1/4
CURRITUCK*     FOG       59  58  98 SW7       30.49R VSB 1/4
KILL DEVIL HLS FAIR     N/A N/A N/A CALM      30.48R HAZE
MANTEO         FAIR      60  60 100 SW7       30.49S FOG
CAPE HATTERAS  CLOUDY    66  66 100 SW6       30.50S FOG
TARBORO*       NOT AVBL
GOLDSBORO      FOG       63  63 100 S3        30.47S VSB 1/8
WASHINGTON     FOG       64  63  97 W3        30.50R VSB 1/4
GREENVILLE     CLOUDY    64  64 100 CALM      30.49R FOG
NEW BERN       FAIR      66  66 100 S5        30.50R FOG
WILMINGTON     FOG       62  62 100 CALM      30.49S VSB 1/4
$$

VAZ048-211400-
ELSEWHERE

CITY           SKY/WX    TMP DP  RH WIND       PRES   REMARKS
HARRISBURG PA  FOG       45  44  97 CALM      30.30R VSB<1/4
BALTIMORE      FAIR      63  61  93 SW9       30.32R
ANNAPOLIS      FAIR      65  63  93 S9        30.34R
ANDREWS AFB    SUNNY     63  61  92 SW15      30.34R
PHILADELPHIA   CLOUDY    61  59  93 SW18G25   30.33R
HENDERSON NC   CLOUDY    62  60  93 SW10      30.45S
GREENSBORO     CLOUDY    64  64 100 SW9       30.43R
ROCKY MOUNT    CLOUDY    65  64  97 S6        30.48R
$$

VAZ100-211400-
MARINE

STATION/POSITION TIME  TEMP    WIND        PRES    WAVE   SWELL
                       AIR SEA DIR/SP/G            HT/PER HT/PER
                 (UTC) (F)     (DEG/KT/KT) (MB)    (FT/S) (FT/S)
BRANDYWINE LGT   1236   58     230/ 16/ 18 1028.6R
CAPE MAY NJ      1236   57 42  220/ 10/ 14 1028.1S
LEWES DE         1236   65 43  250/  9/ 13 1028.6R
15NM E FENWICK I 1250   47 41  200/ 16/ 17 1030.1R   3/ 5   2/11
OCEAN-CITY-INLET 1236   51 47  220/ 14/ 16 1030.4R
WACHAPREAGUE VA  1236   57 53  210/  7/ 11 1030.7R
THOMAS POINT MD  1300   56 40  220/ 14/ 15   N/A
GOOSES REEF MD   1300   53 40  190/ 10/ 12 1029.0    1/ 2
COVE POINT MD    1236   64     230/ 15/ 21 1029.2R
SOLOMONS ISLAND  1236   62 43  220/  8/ 11 1028.6R
BISHOPS HEAD MD  1236   56 49  190/ 13/ 14 1029.6R
PINEY POINT MD   1248          240/  9/ 12   N/A
POTOMAC MD       1300   55 41   50/ 14/ 16 1028.7    1/ 2
CAMBRIDGE MD     1236   61 46              1029.4R
LEWISETTA VA     1236   65 48  230/ 13/ 17 1029.2R
RAPPAHANNOCK LGT 1248          190/ 12/ 13 1031.2R
STINGRAY PT      1300   55 44  250/ 12/ 12 1032.4    1/ 2
YORK RVR RNG VA  1236   59     230/ 13/ 14 1031.3R
YORKTOWN VA      1236   65 47  220/ 12/ 15 1030.4R
DOMINION TERM VA 1236   60     220/ 11/ 12 1031.6R
KIPTOPEKE VA     1248      44  170/  3/  4   N/A
CAPE HENRY VA    1236   67     210/  7/ 13   N/A
S CRANEY ISL VA  1236   66     220/ 10/ 13 1031.2R
CAPE HENRY BUOY  1300      44                N/A     3/13   2/13
1ST LANDING BUOY 1300   54 42  240/  8/ 10 1031.4    1/ 4
CAPE CHARLES BUO 1251      44                N/A     2/11   2/11
64NM E OF VA BCH 1250   53 50  200/  8/ 10 1032.6R   3/13   3/13
DUCK PIER NC     1248   63 44  200/  8/ 11 1031.8R
44100 DUCK FRF   1245      46                N/A     3/12   2/12
44056 DUCK FRF   1300      46                N/A     3/11   2/11
OREGON INLET NC  1242   60 57  180/  8/ 10 1032.3S
HATTERAS NC      1248   66 59  210/  4/  6 1032.6R
DIAMOND SHLS NC  1250   72 71  180/ 14/ 16 1033.2R   4/13   3/13
CAPE LOOKOUT NC  1200          180/  5/  5 1032.7R
$$




USA.gov is the U.S. government's official web portal to all federal, state and local government web resources and services.